2024-02-07T19:04:49Z,clima01,24-02-07T19:04:43,1.2,1.2,45.0,0.0,0.0,2735.65,4.7,5.27,999.64,88.76,3.82,91.05,1
2024-02-07T19:14:49Z,clima01,24-02-07T19:14:43,1.2,2.4,270.0,0.0,8.1,2734.90,4.7,5.01,999.64,89.47,3.69,91.96,2
2024-02-07T19:24:49Z,clima01,24-02-07T19:24:43,3.6,3.6,270.0,0.0,0.0,2734.26,4.6,4.80,999.65,90.12,3.67,92.61,3
2024-02-07T19:34:49Z,clima01,24-02-07T19:34:43,1.2,2.4,180.0,0.0,8.1,2734.60,4.6,4.63,999.63,90.51,3.61,92.76,4
2024-02-07T19:44:49Z,clima01,24-02-07T19:44:43,3.6,3.6,315.0,0.3,0.0,2733.72,4.6,4.48,999.58,90.70,3.53,93.30,5
2024-02-07T19:54:49Z,clima01,24-02-07T19:54:43,2.4,2.4,22.5,0.0,28.2,2733.25,4.5,4.37,999.53,90.86,3.53,93.39,6
2024-02-07T20:04:49Z,clima01,24-02-07T20:04:43,0.0,0.0,45.0,0.0,4.0,2732.48,4.5,4.29,999.52,91.12,3.58,93.59,7
2024-02-07T20:14:49Z,clima01,24-02-07T20:14:43,0.0,0.0,225.0,0.0,0.0,2732.77,4.5,4.24,999.51,91.16,3.62,93.98,8
2024-02-07T20:24:49Z,clima01,24-02-07T20:24:43,2.4,3.6,270.0,0.0,20.2,2732.97,4.5,4.20,999.47,91.24,3.59,93.90,9
2024-02-07T20:34:48Z,clima01,24-02-07T20:34:43,3.6,3.6,0.0,0.0,8.1,2733.32,4.6,4.19,999.46,91.51,3.66,94.14,10
2024-02-07T20:44:49Z,clima01,24-02-07T20:44:43,1.2,1.2,0.0,0.0,12.1,2732.76,4.5,4.16,999.42,91.50,3.57,94.31,11
2024-02-07T20:54:49Z,clima01,24-02-07T20:54:43,0.0,0.0,315.0,0.0,4.0,2732.71,4.5,4.15,999.41,91.54,3.65,94.15,12
2024-02-07T21:04:49Z,clima01,24-02-07T21:04:43,1.2,1.2,225.0,0.0,0.0,2733.00,4.6,4.15,999.37,91.46,3.70,93.80,13
2024-02-07T21:14:49Z,clima01,24-02-07T21:14:43,1.2,1.2,270.0,0.0,4.0,2732.37,4.5,4.12,999.34,91.28,3.51,94.04,14
2024-02-07T21:24:49Z,clima01,24-02-07T21:24:43,2.4,2.4,225.0,0.0,20.2,2733.61,4.5,4.10,999.29,91.54,3.53,93.98,15
2024-02-07T21:34:49Z,clima01,24-02-07T21:34:43,2.4,2.4,0.0,0.0,0.0,2732.88,4.4,4.09,999.24,91.62,3.55,94.39,16
2024-02-07T21:44:49Z,clima01,24-02-07T21:44:43,0.0,0.0,315.0,0.0,16.1,2733.49,4.4,4.08,999.16,91.80,3.57,94.28,17
2024-02-07T21:54:48Z,clima01,24-02-07T21:54:43,2.4,2.4,225.0,0.0,0.0,2733.21,4.4,4.07,999.10,91.69,3.56,94.30,18
2024-02-07T22:04:49Z,clima01,24-02-07T22:04:43,0.0,1.2,0.0,0.0,8.1,2733.45,4.3,4.07,999.02,91.65,3.58,93.99,19
2024-02-07T22:14:48Z,clima01,24-02-07T22:14:43,0.0,0.0,315.0,0.0,4.0,2733.38,4.2,4.08,998.96,91.51,3.61,93.71,20
2024-02-07T22:24:49Z,clima01,24-02-07T22:24:43,0.0,0.0,270.0,0.0,8.1,2733.57,4.2,4.10,998.92,91.34,3.69,93.69,21
2024-02-07T22:34:48Z,clima01,24-02-07T22:34:43,1.2,2.4,315.0,0.0,4.0,2733.33,4.3,4.13,998.92,91.10,3.70,93.57,22
2024-02-07T22:44:48Z,clima01,24-02-07T22:44:43,0.0,0.0,90.0,0.0,4.0,2732.96,4.4,4.18,998.94,90.80,3.84,93.01,23
2024-02-07T22:54:48Z,clima01,24-02-07T22:54:43,0.0,0.0,135.0,0.0,12.1,2733.63,4.4,4.22,998.99,90.11,3.90,92.59,24
2024-02-07T23:04:48Z,clima01,24-02-07T23:04:43,0.0,0.0,135.0,0.0,0.0,2734.76,4.5,4.29,999.01,90.21,4.02,92.84,25
2024-02-07T23:14:48Z,clima01,24-02-07T23:14:43,0.0,0.0,315.0,0.0,0.0,2735.12,4.5,4.34,998.96,89.98,4.02,92.38,26
2024-02-07T23:24:48Z,clima01,24-02-07T23:24:43,3.6,3.6,45.0,0.0,8.1,2734.45,4.5,4.38,998.89,89.94,4.00,92.25,27
2024-02-07T23:34:48Z,clima01,24-02-07T23:34:43,0.0,0.0,270.0,0.0,4.0,2735.26,4.5,4.43,998.84,89.75,4.08,92.15,28
2024-02-07T23:44:48Z,clima01,24-02-07T23:44:43,2.4,2.4,0.0,0.0,8.1,2736.00,4.5,4.47,998.81,89.61,4.15,91.96,29
2024-02-07T23:54:48Z,clima01,24-02-07T23:54:43,0.0,0.0,270.0,0.0,0.0,2735.48,4.6,4.51,998.82,89.60,4.16,92.10,30
2024-02-08T00:14:49Z,clima01,24-02-08T00:14:43,0.0,0.0,180.0,0.0,12.1,2737.21,4.6,5.64,998.84,88.59,4.21,90.68,1
2024-02-08T00:24:49Z,clima01,24-02-08T00:24:43,1.2,2.4,22.5,0.0,0.0,2735.50,4.5,5.40,998.84,88.05,4.18,90.30,2
2024-02-08T00:34:49Z,clima01,24-02-08T00:34:43,2.4,3.6,45.0,0.0,16.1,2735.39,4.5,5.22,998.83,87.64,4.20,89.82,3
2024-02-08T00:44:49Z,clima01,24-02-08T00:44:43,0.0,0.0,270.0,0.0,0.0,2735.19,4.5,5.11,998.82,87.57,4.28,89.90,4
2024-02-08T00:54:49Z,clima01,24-02-08T00:54:43,0.0,0.0,225.0,0.0,16.1,2735.45,4.5,5.02,998.81,87.55,4.30,89.88,5
2024-02-08T01:04:49Z,clima01,24-02-08T01:04:43,2.4,2.4,270.0,0.0,12.1,2736.01,4.5,4.95,998.76,86.97,4.23,89.47,6
2024-02-08T01:14:49Z,clima01,24-02-08T01:14:43,0.0,0.0,315.0,0.0,8.1,2735.74,4.4,4.89,998.71,86.92,4.20,89.26,7
2024-02-08T01:24:48Z,clima01,24-02-08T01:24:43,0.0,0.0,292.5,0.0,4.0,2735.66,4.4,4.85,998.67,87.28,4.21,89.62,8
2024-02-08T01:34:49Z,clima01,24-02-08T01:34:43,0.0,0.0,225.0,0.0,0.0,2734.38,4.4,4.80,998.66,87.40,4.16,89.92,9
2024-02-08T01:44:49Z,clima01,24-02-08T01:44:43,0.0,0.0,315.0,0.0,16.1,2735.63,4.4,4.76,998.67,87.70,4.15,90.26,10
2024-02-08T01:54:49Z,clima01,24-02-08T01:54:43,0.0,0.0,315.0,0.0,0.0,2734.82,4.5,4.73,998.67,87.88,4.15,90.58,11
2024-02-08T02:04:49Z,clima01,24-02-08T02:04:43,0.0,0.0,315.0,0.0,0.0,2734.96,4.5,4.70,998.68,88.00,4.10,90.53,12
2024-02-08T02:14:49Z,clima01,24-02-08T02:14:43,0.0,0.0,270.0,0.0,4.0,2734.07,4.5,4.69,998.69,88.16,4.17,90.62,13
2024-02-08T02:24:48Z,clima01,24-02-08T02:24:43,0.0,0.0,270.0,0.0,12.1,2734.09,4.5,4.66,998.68,88.49,4.09,91.01,14
2024-02-08T02:34:48Z,clima01,24-02-08T02:34:43,0.0,0.0,315.0,0.0,0.0,2733.44,4.5,4.63,998.66,89.06,4.06,91.71,15
2024-02-08T02:44:48Z,clima01,24-02-08T02:44:43,0.0,0.0,270.0,0.0,4.0,2733.67,4.5,4.61,998.64,89.47,4.03,92.32,16
2024-02-08T02:54:48Z,clima01,24-02-08T02:54:43,0.0,2.4,315.0,0.0,0.0,2732.73,4.5,4.59,998.58,90.18,4.03,93.11,17
2024-02-08T03:04:48Z,clima01,24-02-08T03:04:43,0.0,0.0,225.0,0.0,4.0,2733.20,4.5,4.56,998.57,90.74,3.96,93.49,18
2024-02-08T03:14:48Z,clima01,24-02-08T03:14:43,0.0,0.0,180.0,0.0,8.1,2732.71,4.5,4.54,998.54,91.35,4.04,93.93,19
2024-02-08T03:24:48Z,clima01,24-02-08T03:24:43,0.0,0.0,112.5,0.0,8.1,2733.10,4.6,4.52,998.48,91.68,4.01,94.35,20
2024-02-08T03:34:48Z,clima01,24-02-08T03:34:43,0.0,0.0,315.0,0.0,0.0,2733.16,4.5,4.50,998.42,91.82,3.92,94.25,21
2024-02-08T03:44:48Z,clima01,24-02-08T03:44:43,0.0,0.0,315.0,0.0,36.3,2732.84,4.5,4.48,998.35,91.94,3.94,94.77,22
2024-02-08T03:54:48Z,clima01,24-02-08T03:54:43,0.0,0.0,315.0,0.0,4.0,2732.11,4.5,4.46,998.27,92.09,3.93,94.63,23
2024-02-08T04:04:48Z,clima01,24-02-08T04:04:42,2.4,2.4,225.0,0.0,0.0,2732.27,4.5,4.45,998.21,92.18,3.93,94.84,24
2024-02-08T04:14:48Z,clima01,24-02-08T04:14:42,0.0,0.0,45.0,0.0,8.1,2731.65,4.5,4.44,998.23,92.20,3.86,94.63,25
2024-02-08T04:24:48Z,clima01,24-02-08T04:24:42,0.0,0.0,270.0,0.0,0.0,2732.40,4.5,4.42,998.21,92.08,3.88,94.51,26
2024-02-08T04:34:48Z,clima01,24-02-08T04:34:42,0.0,0.0,225.0,0.0,12.1,2730.91,4.5,4.42,998.17,91.83,3.93,94.25,27
2024-02-08T04:44:48Z,clima01,24-02-08T04:44:42,0.0,2.4,45.0,0.0,4.0,2732.65,4.5,4.44,998.15,91.72,4.02,94.37,28
2024-02-08T04:54:48Z,clima01,24-02-08T04:54:42,0.0,0.0,315.0,0.0,16.1,2731.56,4.5,4.45,998.13,91.46,3.97,93.92,29
2024-02-08T05:04:48Z,clima01,24-02-08T05:04:42,0.0,0.0,270.0,0.0,8.1,2731.12,4.5,4.46,998.10,91.51,4.01,94.13,30
2024-02-08T05:14:48Z,clima01,24-02-08T05:14:42,0.0,0.0,180.0,0.0,0.0,2730.92,4.5,4.48,998.05,91.69,4.05,94.24,31
2024-02-08T05:24:48Z,clima01,24-02-08T05:24:42,0.0,0.0,180.0,0.0,20.2,2730.84,4.5,4.50,998.01,91.73,4.06,94.16,32
2024-02-08T05:34:48Z,clima01,24-02-08T05:34:42,0.0,0.0,45.0,0.0,12.1,2730.66,4.6,4.50,998.00,91.53,4.01,93.89,33
2024-02-08T05:44:48Z,clima01,24-02-08T05:44:42,0.0,0.0,315.0,0.0,4.0,2730.73,4.5,4.50,997.95,91.42,4.00,93.92,34
2024-02-08T05:54:48Z,clima01,24-02-08T05:54:42,3.6,3.6,67.5,0.0,8.1,2730.95,4.5,4.51,997.83,91.39,4.07,93.91,35
2024-02-08T06:04:48Z,clima01,24-02-08T06:04:42,0.0,0.0,270.0,0.3,28.2,2732.51,4.5,4.54,997.72,91.43,4.13,93.93,36
2024-02-08T06:14:48Z,clima01,24-02-08T06:14:42,0.0,0.0,270.0,0.0,4.0,2733.96,4.5,4.55,997.61,91.27,4.08,93.86,37
2024-02-08T06:24:48Z,clima01,24-02-08T06:24:42,0.0,0.0,270.0,0.3,0.0,2738.59,4.5,4.57,997.50,91.45,4.13,94.18,38
2024-02-08T06:34:48Z,clima01,24-02-08T06:34:42,0.0,0.0,315.0,0.3,0.0,2743.75,4.5,4.56,997.47,91.59,4.05,94.64,39
2024-02-08T06:44:48Z,clima01,24-02-08T06:44:42,0.0,0.0,0.0,0.0,4.0,2744.73,4.5,4.58,997.47,91.77,4.11,94.98,40
2024-02-08T06:54:48Z,clima01,24-02-08T06:54:42,0.0,0.0,90.0,0.0,0.0,2744.06,4.5,4.59,997.47,91.60,4.10,94.21,41
2024-02-08T07:04:48Z,clima01,24-02-08T07:04:42,0.0,0.0,180.0,0.6,8.1,2759.79,4.5,4.62,997.45,91.67,4.18,94.91,42
2024-02-08T07:14:48Z,clima01,24-02-08T07:14:42,2.4,2.4,180.0,0.6,0.0,2780.18,4.5,4.64,997.41,91.92,4.18,95.05,43
2024-02-08T07:24:48Z,clima01,24-02-08T07:24:42,0.0,0.0,270.0,0.3,4.0,2775.87,4.5,4.66,997.39,91.91,4.23,94.79,44
2024-02-08T07:34:48Z,clima01,24-02-08T07:34:42,0.0,0.0,315.0,0.0,8.1,2770.96,4.5,4.65,997.34,91.74,4.08,94.64,45
2024-02-08T07:44:48Z,clima01,24-02-08T07:44:42,0.0,2.4,0.0,0.0,28.2,2765.61,4.6,4.65,997.28,91.84,4.14,94.89,46
2024-02-08T07:54:48Z,clima01,24-02-08T07:54:42,0.0,0.0,225.0,0.0,36.3,2761.42,4.6,4.68,997.21,91.88,4.29,94.80,47
2024-02-08T08:04:48Z,clima01,24-02-08T08:04:42,1.2,2.4,225.0,0.0,44.4,2758.99,4.7,4.72,997.12,91.72,4.35,94.21,48
2024-02-08T08:14:48Z,clima01,24-02-08T08:14:42,2.4,2.4,202.5,0.0,36.3,2755.91,4.8,4.76,997.05,91.43,4.37,94.18,49
2024-02-08T08:24:48Z,clima01,24-02-08T08:24:42,0.0,0.0,315.0,0.0,96.8,2752.95,4.9,4.81,996.96,91.39,4.45,94.13,50
2024-02-08T08:34:48Z,clima01,24-02-08T08:34:42,0.0,0.0,225.0,0.0,76.6,2750.44,5.1,4.89,996.85,91.33,4.63,94.04,51
2024-02-08T08:44:48Z,clima01,24-02-08T08:44:42,0.0,0.0,315.0,0.0,92.7,2748.73,5.3,4.98,996.70,91.22,4.73,94.03,52
2024-02-08T08:54:48Z,clima01,24-02-08T08:54:42,0.0,2.4,270.0,0.0,121.0,2746.96,5.4,5.05,996.55,90.63,4.76,93.37,53
2024-02-08T09:04:48Z,clima01,24-02-08T09:04:42,3.6,3.6,90.0,0.0,116.9,2745.01,5.5,5.13,996.41,90.40,4.83,93.37,54
2024-02-08T09:14:47Z,clima01,24-02-08T09:14:42,2.4,2.4,270.0,0.0,96.8,2742.36,5.6,5.18,996.26,90.13,4.81,92.65,55
2024-02-08T09:24:48Z,clima01,24-02-08T09:24:42,1.2,2.4,337.5,0.0,121.0,2741.15,5.6,5.26,996.09,89.97,4.99,92.58,56
2024-02-08T09:34:48Z,clima01,24-02-08T09:34:42,1.2,3.6,315.0,0.0,133.1,2740.14,5.6,5.29,995.94,89.64,4.88,92.41,57
2024-02-08T09:44:48Z,clima01,24-02-08T09:44:42,3.6,3.6,270.0,0.0,108.9,2739.24,5.6,5.34,995.79,90.13,4.93,92.95,58
2024-02-08T09:54:47Z,clima01,24-02-08T09:54:42,2.4,2.4,315.0,0.0,100.8,2739.49,5.7,5.40,995.62,90.03,5.03,92.28,59
2024-02-08T10:04:48Z,clima01,24-02-08T10:04:42,1.2,3.6,315.0,0.3,88.7,2740.81,5.6,5.44,995.47,90.46,5.03,93.52,60
2024-02-08T10:14:47Z,clima01,24-02-08T10:14:42,0.0,1.2,270.0,0.3,88.7,2754.48,5.6,5.47,995.32,90.88,5.04,93.88,61
2024-02-08T10:24:47Z,clima01,24-02-08T10:24:42,2.4,3.6,270.0,0.6,104.8,2763.69,5.6,5.48,995.16,91.20,4.95,94.25,62
2024-02-08T10:34:47Z,clima01,24-02-08T10:34:42,3.6,3.6,270.0,0.6,80.6,2779.54,5.6,5.50,994.97,92.02,5.05,95.09,63
2024-02-08T10:44:47Z,clima01,24-02-08T10:44:42,1.2,1.2,315.0,0.3,80.6,2784.89,5.6,5.52,994.80,92.44,5.04,95.59,64
2024-02-08T10:54:47Z,clima01,24-02-08T10:54:42,1.2,2.4,225.0,0.3,64.5,2787.13,5.7,5.56,994.60,92.71,5.17,95.69,65
2024-02-08T11:04:47Z,clima01,24-02-08T11:04:42,3.6,3.6,135.0,0.6,76.6,2786.09,5.7,5.61,994.38,92.77,5.21,95.55,66
2024-02-08T11:14:47Z,clima01,24-02-08T11:14:42,3.6,6.0,0.0,0.3,68.5,2788.95,5.8,5.67,994.14,92.84,5.31,95.48,67
2024-02-08T11:24:48Z,clima01,24-02-08T11:24:42,3.6,3.6,180.0,0.6,72.6,2794.17,5.9,5.77,993.90,92.94,5.52,95.79,68
2024-02-08T11:34:47Z,clima01,24-02-08T11:34:42,1.2,1.2,225.0,0.6,84.7,2802.24,5.9,5.86,993.71,92.98,5.61,95.88,69
2024-02-08T11:44:47Z,clima01,24-02-08T11:44:42,1.2,2.4,180.0,0.6,80.6,2805.49,6.0,5.94,993.53,92.97,5.69,95.64,70
2024-02-08T11:54:47Z,clima01,24-02-08T11:54:41,1.2,1.2,180.0,0.0,108.9,2800.95,6.1,6.02,993.26,92.90,5.76,95.70,71
2024-02-08T12:04:47Z,clima01,24-02-08T12:04:41,2.4,2.4,225.0,0.3,92.7,2793.69,6.4,6.12,993.03,92.89,5.90,95.42,72
2024-02-08T12:14:48Z,clima01,24-02-08T12:14:41,1.2,2.4,315.0,0.0,100.8,2785.84,6.4,6.23,992.81,92.75,6.02,95.51,73
2024-02-08T12:24:47Z,clima01,24-02-08T12:24:41,0.0,0.0,315.0,0.0,80.6,2778.88,6.5,6.36,992.62,92.66,6.22,95.44,74
2024-02-08T12:34:47Z,clima01,24-02-08T12:34:41,2.4,2.4,315.0,0.0,76.6,2773.33,6.6,6.49,992.44,92.54,6.34,95.24,75
2024-02-08T12:44:47Z,clima01,24-02-08T12:44:41,0.0,0.0,270.0,0.0,84.7,2769.13,6.7,6.64,992.32,92.54,6.56,95.35,76
2024-02-08T12:54:47Z,clima01,24-02-08T12:54:41,2.4,2.4,270.0,0.0,92.7,2764.20,6.9,6.78,992.19,92.39,6.69,94.83,77
2024-02-08T13:04:47Z,clima01,24-02-08T13:04:41,1.2,1.2,90.0,0.0,72.6,2759.46,7.0,6.91,992.03,91.90,6.78,94.59,78
2024-02-08T13:14:48Z,clima01,24-02-08T13:14:41,0.0,0.0,270.0,0.3,60.5,2762.26,7.0,7.04,991.86,91.99,6.84,94.76,79
2024-02-08T13:24:47Z,clima01,24-02-08T13:24:41,0.0,0.0,270.0,0.0,60.5,2761.88,7.0,7.14,991.71,92.12,6.91,95.04,80
2024-02-08T13:34:47Z,clima01,24-02-08T13:34:41,0.0,0.0,270.0,0.0,112.9,2760.68,7.1,7.24,991.52,92.34,6.99,95.12,81
2024-02-08T13:44:47Z,clima01,24-02-08T13:44:41,2.4,2.4,180.0,0.0,141.1,2759.09,7.3,7.38,991.37,92.59,7.25,95.50,82
2024-02-08T13:54:47Z,clima01,24-02-08T13:54:41,0.0,2.4,270.0,0.3,100.8,2758.93,7.4,7.50,991.24,92.64,7.33,95.55,83
2024-02-08T14:04:47Z,clima01,24-02-08T14:04:41,0.0,1.2,225.0,0.0,72.6,2759.02,7.4,7.63,991.09,92.78,7.45,95.70,84
2024-02-08T14:14:47Z,clima01,24-02-08T14:14:41,0.0,1.2,315.0,0.0,68.5,2761.11,7.5,7.75,990.92,93.02,7.57,95.81,85
2024-02-08T14:24:47Z,clima01,24-02-08T14:24:41,2.4,2.4,270.0,0.3,88.7,2762.66,7.5,7.86,990.74,93.16,7.67,95.92,86
2024-02-08T14:34:47Z,clima01,24-02-08T14:34:41,1.2,2.4,315.0,0.0,44.4,2764.87,7.5,7.97,990.53,93.29,7.75,96.21,87
2024-02-08T14:44:47Z,clima01,24-02-08T14:44:41,1.2,1.2,225.0,0.6,60.5,2770.34,7.6,8.07,990.31,93.58,7.83,96.52,88
2024-02-08T14:54:47Z,clima01,24-02-08T14:54:41,0.0,0.0,135.0,0.0,28.2,2772.31,7.6,8.16,990.08,93.80,7.89,96.72,89
2024-02-08T15:04:47Z,clima01,24-02-08T15:04:41,1.2,1.2,225.0,0.0,20.2,2768.19,7.7,8.26,989.88,93.96,8.01,96.87,90
2024-02-08T15:14:47Z,clima01,24-02-08T15:14:41,2.4,3.6,90.0,0.0,16.1,2764.14,7.8,8.37,989.72,94.10,8.14,96.94,91
2024-02-08T15:24:47Z,clima01,24-02-08T15:24:41,0.0,1.2,315.0,0.3,20.2,2763.17,7.9,8.49,989.57,94.24,8.28,97.08,92
2024-02-08T15:34:47Z,clima01,24-02-08T15:34:41,2.4,2.4,270.0,0.0,8.1,2763.35,7.9,8.62,989.43,94.34,8.47,97.14,93
2024-02-08T15:44:47Z,clima01,24-02-08T15:44:41,2.4,2.4,270.0,0.0,20.2,2763.99,8.0,8.74,989.33,94.40,8.56,97.28,94
2024-02-08T15:54:47Z,clima01,24-02-08T15:54:41,1.2,1.2,270.0,0.3,16.1,2763.73,8.0,8.86,989.22,94.52,8.68,97.27,95
2024-02-08T16:04:47Z,clima01,24-02-08T16:04:41,0.0,0.0,270.0,0.0,0.0,2760.88,8.1,8.98,989.08,94.57,8.80,97.24,96
2024-02-08T16:14:47Z,clima01,24-02-08T16:14:41,0.0,1.2,112.5,0.0,16.1,2757.64,8.2,9.11,988.97,94.51,8.94,97.07,97
2024-02-08T16:24:47Z,clima01,24-02-08T16:24:41,0.0,0.0,315.0,0.0,12.1,2754.07,8.2,9.24,988.86,94.33,9.09,96.75,98
2024-02-08T16:34:47Z,clima01,24-02-08T16:34:41,1.2,1.2,315.0,0.0,8.1,2749.86,8.3,9.39,988.76,93.97,9.30,96.31,99
2024-02-08T16:44:47Z,clima01,24-02-08T16:44:41,0.0,0.0,315.0,0.0,4.0,2747.24,8.3,9.56,988.66,93.59,9.53,96.04,100
2024-02-08T16:54:47Z,clima01,24-02-08T16:54:41,0.0,0.0,135.0,0.0,20.2,2745.58,8.5,9.75,988.58,93.18,9.82,95.43,101
2024-02-08T17:04:47Z,clima01,24-02-08T17:04:41,2.4,2.4,315.0,0.0,0.0,2742.88,8.6,10.00,988.54,92.37,10.29,94.32,102
2024-02-08T17:14:47Z,clima01,24-02-08T17:14:41,3.6,4.8,315.0,0.0,4.0,2741.80,8.8,10.34,988.49,89.96,10.91,91.50,103
2024-02-08T17:24:47Z,clima01,24-02-08T17:24:41,3.6,3.6,315.0,0.0,12.1,2741.10,9.2,10.73,988.42,87.51,11.38,89.49,104
2024-02-08T17:34:46Z,clima01,24-02-08T17:34:41,3.6,3.6,315.0,0.0,0.0,2740.39,9.4,11.06,988.34,86.68,11.51,89.13,105
2024-02-08T17:44:46Z,clima01,24-02-08T17:44:41,3.6,3.6,270.0,0.0,0.0,2739.55,9.5,11.34,988.29,86.06,11.63,88.54,106
2024-02-08T17:54:46Z,clima01,24-02-08T17:54:41,3.6,3.6,247.5,0.0,20.2,2738.91,9.6,11.52,988.25,86.83,11.48,89.50,107
2024-02-08T18:04:47Z,clima01,24-02-08T18:04:41,6.0,6.0,270.0,0.0,0.0,2739.25,9.6,11.64,988.22,87.30,11.47,89.67,108
2024-02-08T18:14:46Z,clima01,24-02-08T18:14:41,6.0,6.0,270.0,0.0,4.0,2739.00,9.7,11.76,988.22,86.82,11.59,89.24,109
2024-02-08T18:24:47Z,clima01,24-02-08T18:24:41,3.6,3.6,270.0,0.0,0.0,2738.84,9.8,11.86,988.20,86.77,11.63,89.11,110
2024-02-08T18:34:46Z,clima01,24-02-08T18:34:41,3.6,3.6,270.0,0.0,0.0,2738.66,9.9,11.94,988.18,86.86,11.62,89.43,111
2024-02-08T18:44:47Z,clima01,24-02-08T18:44:41,3.6,3.6,315.0,0.0,0.0,2738.20,9.9,11.99,988.16,87.41,11.56,90.04,112
2024-02-08T18:54:46Z,clima01,24-02-08T18:54:41,4.8,4.8,315.0,0.0,16.1,2737.62,9.9,11.99,988.16,88.37,11.46,91.07,113
2024-02-08T19:04:46Z,clima01,24-02-08T19:04:41,4.8,4.8,292.5,0.0,20.2,2736.00,9.9,11.98,988.16,88.97,11.41,91.60,114
2024-02-08T19:14:46Z,clima01,24-02-08T19:14:41,0.0,0.0,225.0,0.0,4.0,2735.04,9.9,11.97,988.10,89.06,11.41,91.56,115
2024-02-08T19:24:47Z,clima01,24-02-08T19:24:41,0.0,0.0,180.0,0.0,28.2,2734.69,9.8,11.94,988.06,89.30,11.28,91.93,116
2024-02-08T19:34:47Z,clima01,24-02-08T19:34:41,3.6,3.6,135.0,0.0,0.0,2734.88,9.7,11.91,988.00,89.51,11.28,91.95,117
2024-02-08T19:44:46Z,clima01,24-02-08T19:44:40,0.0,0.0,315.0,0.0,0.0,2734.58,9.7,11.90,987.94,89.15,11.34,91.51,118
2024-02-08T19:54:46Z,clima01,24-02-08T19:54:40,3.6,6.0,270.0,0.3,0.0,2732.45,9.7,11.92,987.89,89.04,11.43,91.20,119
2024-02-08T20:04:46Z,clima01,24-02-08T20:04:40,1.2,3.6,0.0,0.0,16.1,2734.46,9.8,11.92,987.85,89.24,11.38,92.00,120
2024-02-08T20:14:46Z,clima01,24-02-08T20:14:40,0.0,0.0,270.0,0.3,12.1,2738.32,9.8,11.91,987.78,89.47,11.29,92.09,121
2024-02-08T20:24:47Z,clima01,24-02-08T20:24:40,2.4,2.4,90.0,0.0,12.1,2738.69,9.7,11.86,987.74,90.02,11.16,92.62,122
2024-02-08T20:34:46Z,clima01,24-02-08T20:34:40,1.2,2.4,90.0,0.0,0.0,2742.72,9.7,11.82,987.72,89.93,11.13,92.46,123
2024-02-08T20:44:46Z,clima01,24-02-08T20:44:40,0.0,0.0,135.0,0.3,0.0,2748.17,9.7,11.77,987.66,89.53,11.10,92.20,124
2024-02-08T20:54:46Z,clima01,24-02-08T20:54:40,3.6,3.6,135.0,0.0,12.1,2751.30,9.7,11.72,987.58,89.40,11.02,92.02,125
2024-02-08T21:04:46Z,clima01,24-02-08T21:04:40,2.4,2.4,90.0,0.3,0.0,2752.37,9.6,11.65,987.54,89.87,10.89,92.57,126
2024-02-08T21:14:46Z,clima01,24-02-08T21:14:40,2.4,2.4,135.0,0.0,4.0,2752.71,9.6,11.55,987.51,90.42,10.72,92.89,127
2024-02-08T21:24:46Z,clima01,24-02-08T21:24:40,1.2,2.4,0.0,0.3,4.0,2754.99,9.6,11.47,987.46,90.04,10.69,92.41,128
2024-02-08T21:34:46Z,clima01,24-02-08T21:34:40,0.0,0.0,45.0,0.0,0.0,2756.62,9.6,11.41,987.42,89.80,10.66,92.22,129
2024-02-08T21:44:46Z,clima01,24-02-08T21:44:40,2.4,2.4,180.0,0.3,0.0,2759.69,9.5,11.32,987.36,90.50,10.53,93.19,130
2024-02-08T21:54:47Z,clima01,24-02-08T21:54:40,0.0,0.0,225.0,0.3,24.2,2762.44,9.5,11.23,987.27,90.89,10.41,93.58,131
2024-02-08T22:04:47Z,clima01,24-02-08T22:04:40,0.0,1.2,0.0,0.3,0.0,2764.70,9.4,11.13,987.20,91.29,10.25,94.02,132
2024-02-08T22:14:46Z,clima01,24-02-08T22:14:40,0.0,0.0,225.0,0.0,16.1,2762.17,9.4,11.04,987.11,91.62,10.22,94.37,133
2024-02-08T22:24:46Z,clima01,24-02-08T22:24:40,0.0,0.0,315.0,0.0,4.0,2760.38,9.4,10.98,987.01,91.65,10.21,94.35,134
2024-02-08T22:34:46Z,clima01,24-02-08T22:34:40,1.2,2.4,0.0,0.0,0.0,2759.25,9.4,10.93,986.93,91.70,10.19,94.38,135
2024-02-08T22:44:46Z,clima01,24-02-08T22:44:40,2.4,2.4,225.0,0.3,20.2,2760.47,9.4,10.88,986.82,91.85,10.21,94.43,136
2024-02-08T22:54:46Z,clima01,24-02-08T22:54:40,0.0,0.0,90.0,0.0,0.0,2759.21,9.4,10.85,986.70,91.86,10.21,94.47,137
2024-02-08T23:04:46Z,clima01,24-02-08T23:04:40,0.0,0.0,270.0,0.3,4.0,2760.39,9.4,10.81,986.57,91.88,10.16,94.58,138
2024-02-08T23:14:46Z,clima01,24-02-08T23:14:40,0.0,1.2,270.0,0.0,16.1,2762.03,9.4,10.79,986.44,91.80,10.16,94.40,139
2024-02-08T23:24:46Z,clima01,24-02-08T23:24:40,0.0,1.2,0.0,0.0,4.0,2759.71,9.4,10.76,986.31,91.79,10.13,94.33,140
2024-02-08T23:34:46Z,clima01,24-02-08T23:34:40,0.0,0.0,270.0,0.0,16.1,2757.40,9.4,10.75,986.20,91.53,10.19,93.84,141
2024-02-08T23:44:46Z,clima01,24-02-08T23:44:40,0.0,0.0,135.0,0.3,0.0,2756.37,9.3,10.75,986.11,91.14,10.23,93.69,142
2024-02-08T23:54:46Z,clima01,24-02-08T23:54:40,0.0,0.0,225.0,0.3,16.1,2765.15,9.4,10.77,986.00,90.80,10.25,93.44,143
2024-02-09T00:14:47Z,clima01,24-02-09T00:14:40,0.0,0.0,135.0,0.6,0.0,2792.09,9.5,11.73,985.55,90.86,10.29,93.38,1
2024-02-09T00:24:46Z,clima01,24-02-09T00:24:40,0.0,0.0,135.0,0.3,12.1,2789.08,9.5,11.50,985.52,91.27,10.24,93.90,2
2024-02-09T00:34:46Z,clima01,24-02-09T00:34:40,0.0,2.4,315.0,0.3,0.0,2788.01,9.5,11.32,985.48,91.58,10.19,94.19,3
2024-02-09T00:44:46Z,clima01,24-02-09T00:44:40,0.0,0.0,315.0,0.6,20.2,2793.02,9.5,11.17,985.44,91.92,10.18,94.75,4
2024-02-09T00:54:46Z,clima01,24-02-09T00:54:40,0.0,1.2,0.0,0.3,0.0,2793.78,9.5,11.04,985.38,92.30,10.07,95.13,5
2024-02-09T01:04:46Z,clima01,24-02-09T01:04:40,0.0,0.0,225.0,0.3,4.0,2791.79,9.5,10.93,985.28,92.46,10.04,95.14,6
2024-02-09T01:14:46Z,clima01,24-02-09T01:14:40,1.2,1.2,225.0,0.0,0.0,2784.81,9.4,10.86,985.18,92.23,10.08,94.64,7
2024-02-09T01:24:46Z,clima01,24-02-09T01:24:40,0.0,1.2,180.0,0.0,20.2,2776.54,9.4,10.80,985.04,91.87,10.12,94.35,8
2024-02-09T01:34:46Z,clima01,24-02-09T01:34:40,1.2,3.6,135.0,0.3,4.0,2770.69,9.4,10.76,984.90,91.74,10.08,94.08,9
2024-02-09T01:44:46Z,clima01,24-02-09T01:44:40,3.6,3.6,180.0,0.0,0.0,2767.45,9.4,10.73,984.72,91.29,10.10,93.81,10
2024-02-09T01:54:46Z,clima01,24-02-09T01:54:40,3.6,3.6,315.0,0.0,4.0,2764.05,9.4,10.70,984.55,91.21,10.06,93.82,11
2024-02-09T02:04:46Z,clima01,24-02-09T02:04:40,1.2,2.4,0.0,0.0,8.1,2761.50,9.4,10.70,984.41,90.62,10.17,92.74,12
2024-02-09T02:14:46Z,clima01,24-02-09T02:14:40,1.2,3.6,135.0,0.0,4.0,2759.69,9.4,10.73,984.25,89.51,10.31,91.89,13
2024-02-09T02:24:46Z,clima01,24-02-09T02:24:40,3.6,3.6,270.0,0.3,0.0,2759.79,9.4,10.76,984.08,89.03,10.29,91.54,14
2024-02-09T02:34:46Z,clima01,24-02-09T02:34:40,2.4,3.6,180.0,0.0,16.1,2761.05,9.4,10.77,983.94,88.96,10.24,91.48,15
2024-02-09T02:44:46Z,clima01,24-02-09T02:44:40,1.2,3.6,90.0,0.0,0.0,2758.47,9.4,10.76,983.81,89.00,10.21,91.46,16
2024-02-09T02:54:46Z,clima01,24-02-09T02:54:40,1.2,1.2,90.0,0.0,0.0,2755.72,9.3,10.76,983.66,88.77,10.21,91.31,17
2024-02-09T03:04:46Z,clima01,24-02-09T03:04:40,0.0,2.4,225.0,0.0,0.0,2754.68,9.3,10.75,983.52,88.68,10.17,91.17,18
2024-02-09T03:14:46Z,clima01,24-02-09T03:14:40,2.4,2.4,0.0,0.0,0.0,2752.69,9.3,10.75,983.37,88.34,10.20,90.95,19
2024-02-09T03:24:46Z,clima01,24-02-09T03:24:40,3.6,3.6,180.0,0.3,16.1,2754.18,9.3,10.74,983.22,88.25,10.20,90.88,20
2024-02-09T03:34:46Z,clima01,24-02-09T03:34:40,3.6,3.6,315.0,0.0,4.0,2757.15,9.3,10.76,983.10,87.94,10.27,90.46,21
2024-02-09T03:44:47Z,clima01,24-02-09T03:44:40,1.2,1.2,90.0,0.3,32.3,2762.57,9.3,10.76,983.01,88.28,10.23,90.94,22
2024-02-09T03:54:46Z,clima01,24-02-09T03:54:40,0.0,0.0,0.0,0.3,8.1,2768.57,9.3,10.75,982.95,88.79,10.16,91.60,23
2024-02-09T04:04:46Z,clima01,24-02-09T04:04:40,3.6,3.6,135.0,0.6,12.1,2774.46,9.3,10.71,982.89,89.60,10.07,92.18,24
2024-02-09T04:14:46Z,clima01,24-02-09T04:14:40,1.2,2.4,180.0,0.0,4.0,2773.68,9.3,10.68,982.85,89.82,10.03,92.51,25
2024-02-09T04:24:46Z,clima01,24-02-09T04:24:40,0.0,0.0,315.0,0.3,0.0,2777.22,9.3,10.64,982.82,90.25,9.98,92.96,26
2024-02-09T04:34:45Z,clima01,24-02-09T04:34:40,0.0,0.0,180.0,0.6,4.0,2784.57,9.3,10.61,982.78,90.40,9.99,93.05,27
2024-02-09T04:44:47Z,clima01,24-02-09T04:44:40,3.6,3.6,180.0,0.0,0.0,2779.19,9.3,10.58,982.74,90.68,9.94,93.33,28
2024-02-09T04:54:45Z,clima01,24-02-09T04:54:40,1.2,1.2,135.0,0.0,16.1,2772.88,9.3,10.56,982.67,90.61,9.97,93.23,29
2024-02-09T05:04:46Z,clima01,24-02-09T05:04:40,7.2,7.2,135.0,0.0,16.1,2767.48,9.3,10.55,982.60,90.39,10.00,92.85,30
2024-02-09T05:14:47Z,clima01,24-02-09T05:14:40,3.6,3.6,135.0,0.0,20.2,2763.60,9.3,10.55,982.55,90.44,10.00,93.01,31
2024-02-09T05:24:46Z,clima01,24-02-09T05:24:40,6.0,6.0,90.0,0.0,0.0,2759.85,9.3,10.56,982.52,90.07,10.05,92.53,32
2024-02-09T05:34:45Z,clima01,24-02-09T05:34:40,3.6,3.6,135.0,0.0,0.0,2758.27,9.4,10.58,982.49,89.79,10.12,92.20,33
2024-02-09T05:44:46Z,clima01,24-02-09T05:44:40,2.4,2.4,0.0,0.3,0.0,2761.26,9.4,10.61,982.46,89.62,10.13,92.54,34
2024-02-09T05:54:45Z,clima01,24-02-09T05:54:40,2.4,2.4,0.0,0.0,0.0,2761.21,9.4,10.63,982.44,89.75,10.12,92.26,35